Location: Anglesey
(53.1800°N, 4.2200°W)
Time: 08:12:20
(UTC+00:00)

Tiangong 2 - Visible Passes

Search period start: 18 January 2018 00:00
Search period end: 28 January 2018 00:00
Orbit: 384 x 390 km, 42.8° (Epoch: 17 January)

Date Brightness Start Highest point End Pass type
(mag) Time Alt. Az. Time Alt. Az. Time Alt. Az.
20 Jan 4.0 06:50:36 10° S 06:51:44 11° SSE 06:52:51 10° SSE visible
21 Jan 3.9 07:27:36 10° SSW 07:29:14 13° S 07:30:52 10° SSE visible
22 Jan 3.8 06:29:15 10° SSW 06:30:46 13° S 06:32:19 10° SE visible
23 Jan 4.0 05:32:47 11° SSE 05:32:47 11° SSE 05:33:29 10° SSE visible
23 Jan 3.8 07:06:47 10° SW 07:08:17 13° S 07:09:46 10° SSE visible
24 Jan 3.6 06:09:03 12° SSW 06:09:48 13° S 06:11:26 10° SSE visible
25 Jan 3.8 06:46:19 10° SSW 06:47:16 11° SSW 06:48:14 10° S visible
26 Jan 3.8 05:49:15 12° S 05:49:15 12° S 05:50:15 10° SSE visible
